STARLINK-11438, 62888

Orbit data source: Space-Track

STARLINK-11438, 62888 is a payload satellite owned by SpaceX/Seattle (US) in LEO that was launched on Tue, 04 Feb 2025 UTC via an FALCON 9 launch vehicle from the Air Force Eastern Test Range (AFETR). Payload-class satellites include a variety of spacecraft equipped with specific instruments for various scientific and technological missions. These include communications satellites like Starlink; space stations such as the ISS; scientific satellites like the Hubble; Earth observation satellites from companies like Planet Labs, Umbra, and HawkEye 360; GPS; miniature CubeSats for education and research; and military/defense satellites.

Loading next visibility...
Identifier
62888, 2025-024K
Orbit
LEO
Country
Flag of USUS
Related business
Manufacturer
SpaceX/Seattle
Mission
Operational Commercial Communications
Bus & Motor
STARLINK V2MD, Unknown motor
Mass
960 kg wet, ~910 kg dry
Launch date (UTC)
2025-02-04 (10 months ago)
Launch vehicle
FALCON 9
Launch site
Air Force Eastern Test Range (AFETR)
Object type
Payload
Rocket body
Debris
Shape & HBR
Box + 2 Pan, 18.1 m
Radar Cross Section
36.964 m², Large (>1 m²)

Expand to show TLE details & history
Last TLE update: 15 hours ago

TLE from 15 hours ago
0 STARLINK-11438
1 62888U 25024K   25348.95747015  .00157889  00000-0  12060-2 0  9994
2 62888  42.9973 331.9050 0001964 277.8573  82.2072 15.70932554 50140
Epoch: 2025-12-14T22:58Z
TLE epoch observation values (Epoch: 2025-12-14T22:58:45.420Z)
Latitude
-0.00002°
Longitude
-96.6472°
Altitude
355.822 km
Speed
7.698 km/s
True Right ascension
22h 07m 37s
True Declination
0° 00' 00"
Sunlit
Object was in daylight at epoch
Visualization orbit readout
Latitude
Unknown
Longitude
Unknown
Altitude
Unknown
Speed
Unknown
Apparent Right ascension
Unknown
Apparent Declination
Unknown
Sunlit
N/A
Visualization observer readout
Local Sidereal Time
12:44:18
Azimuth
Unknown
Elevation
Unknown
Doppler factor
Unknown
Orbital elements
Apogee altitude
359.536 km
Perigee altitude
356.89 km
Semi-major axis
6,736.35 km
Eccentricity
0.0002
Inclination
42.9973°
RAAN
331.905°
Arg. of periapsis
277.8573°
True anomaly
82.2295°
Mean anomaly
82.2072°
Eccentric anomaly
82.21835°
Mean motion
3.9256 °/min
Orbital period
91.71 mins
BSTAR
0.001206
Loading maneuver chart data...
Computing Atmospheric mass density...
Loading historical data...
Loading historical data...
Loading historical data...
Loading historical data...
Loading historical data...
Loading historical data...
Loading historical data...

Documentation

Showing up to 5 results
|